Flight Track Log - Related Links

Times and Time Zones

All times are in EDT time to prevent confusion due to time zone crossing. See the EJA802 flight status page for this flight to view local times or setup timezone preferences in your user account.

Time Position Orientation Groundspeed Altitude Reporting Facility
EDT Latitude Longitude Course Direction KTS MPH feet Rate Location/Type
Tue 04:30:54 PM 33.6167 -111.9167 270° West 178 205 2,200  Level Phoenix TRACON
Tue 04:31:42 PM 33.6167 -111.9667 270° West 195 224 3,200 1,444 Climbing Phoenix TRACON
Tue 04:32:42 PM 33.6667 -112.0000 331° Northwest 217 250 4,800 1,636 Climbing Phoenix TRACON
Tue 04:33:54 PM 33.6833 -111.9000 79° East 234 269 6,800 1,000 Climbing Phoenix TRACON
Tue 04:34:48 PM 33.6833 -111.8333 90° East 237 273 6,900 52 Climbing Phoenix TRACON
Tue 04:35:49 PM 33.6667 -111.7667 107° East 214 246 6,900  Level Phoenix TRACON
Tue 04:36:49 PM 33.6500 -111.7000 107° East 220 253 6,900  Level Phoenix TRACON
Tue 04:37:49 PM 33.6167 -111.6333 121° Southeast 220 253 6,900  Level Phoenix TRACON
Tue 04:38:20 PM 33.5939 -111.6147 146° Southeast 224 258 6,900  Level Albuquerque Center
Tue 04:39:22 PM 33.5553 -111.5450 124° Southeast 249 287 6,900  Level Albuquerque Center
Tue 04:40:23 PM 33.5186 -111.4775 123° Southeast 244 281 6,900  Level Albuquerque Center
Tue 04:41:25 PM 33.4700 -111.4442 150° Southeast 221 254 6,900  Level Albuquerque Center
Tue 04:42:27 PM 33.3992 -111.4425 179° South 212 244 6,900  Level Albuquerque Center
Tue 04:43:07 PM 33.3500 -111.4333 171° South 211 243 6,900 -420 Level Phoenix TRACON
Tue 04:44:07 PM 33.3000 -111.4333 180° South 211 243 6,200 -1,000 Descending Phoenix TRACON
Tue 04:45:07 PM 33.2500 -111.4833 220° Southwest 201 231 4,900 -1,474 Descending Phoenix TRACON
Tue 04:46:01 PM 33.2333 -111.5333 248° West 197 227 3,400 -1,316 Descending Phoenix TRACON
Tue 04:47:01 PM 33.2500 -111.5833 292° West 180 207 2,400 -793 Descending Phoenix TRACON
Tue 04:48:02 PM 33.2833 -111.6167 320° Northwest 137 158 1,800 -500 Descending Phoenix TRACON
Tue 04:48:37 PM 33.2867 -111.6356 282° West 128 147 1,600 -343 Descending Albuquerque Center

Login

Don't have an account? Register now (free) for customized features, flight alerts, and more!